Powrót do katalogu

STARLINK-3528

AktywnyŁącznośćVLEO
NORAD 51714·PAYLOAD·🇺🇸 United States

Wystrzelony Feb 21, 2022 z Cape Canaveral Space Force Station

Loading…

Następne Przeloty (najbliższe 24 godziny)

TLE

ŚwieżeSource: CelesTrak SupGP

Epoka: Sep 14, 2026, 21:32 UTC

1 51714C 22016A   26257.89770833 -.00012978  00000+0 -37125-3 0  2572
2 51714  53.1576 189.7469 0001254  89.9140 231.1073 15.35410114    17

Śledź STARLINK-3528 w czasie rzeczywistym z AllMySat

Download on the App Store